Content
SEND FEEDBACK

Daily
Averages
Monthly
Summary
United States of America

CARTERSVILLE, VIRGINIA


Home > North America > United States > Virginia
Elevation: 223 feet     Latitude: 37 42N     Longitude: 078 18W

WEATHER
 
SELECT A DAY
Number of Records: 78,362;   Date Range: 2/1/11 - 8/27/14
 
SHARE

PRINT THIS DATA

[ ← Previous Day ]
WEATHER ALMANAC - JANUARY 29, 2014
[ Next Day → ]
[ °C ]   °F
Weather ElementAverageHighLow
Temperature21.8 °F33.8 °F (11:15 am)10.4 °F (7:35 am)
Dewpoint0.5 °F19.4 °F (11:15 am)-16.6 °F (4:15 pm)
Humidity46.1 %73 % (12:55 am)11 % (4:15 pm)
Barometer30.26 in30.34 in (11:55 pm)30.18 in (2:35 am)
Wind Speed1.9 mph8.1 mph (3:55 pm)
Weather ElementAverage
Visibility9.3 mi
Wind DirectionENE (65.1 °)

Weather ElementTotal
Precipitation0.03 in
Heating Degree Days42.9 (Base 65)
Averaged from 71 records on January 29, 2014
WEATHER CONDITIONS BREAKOUT
WIND DIRECTION BREAKOUT
WEATHER BY HOUR - JANUARY 29, 2014
[ °C ]   °F
Local TimeTemperatureDewpointHumidityBarometerVisibilityWind DirectionWind SpeedGust SpeedPrecipitationEventsConditions
12:35 AM15.8 °F6.8 °F68 %30.21 in1.8 miNorth (10°)5.8 mphSnowLight Snow
12:55 AM15.8 °F8.6 °F73 %30.21 in2.5 miNNE (30°)4.6 mphSnowLight Snow
1:15 AM15.8 °F6.8 °F68 %30.21 in2.5 miNNE (20°)4.6 mphSnowLight Snow
1:35 AM15.8 °F6.8 °F68 %30.21 in2.5 miNNE (20°)4.6 mphSnowLight Snow
1:55 AM15.8 °F6.8 °F68 %30.20 in2.0 miNorth (10°)3.5 mphSnowLight Snow
2:15 AM15.8 °F6.8 °F68 %30.19 in3.0 miNNE (20°)4.6 mphSnowLight Snow
2:35 AM15.8 °F8.6 °F73 %30.18 in10.0 miNNE (20°)4.6 mphSnowLight Snow
2:55 AM15.8 °F8.6 °F73 %30.18 in10.0 miCalmScattered Clouds
3:15 AM15.8 °F6.8 °F68 %30.19 in10.0 miCalmScattered Clouds
3:35 AM15.8 °F6.8 °F68 %30.19 in10.0 miCalmClear
3:55 AM15.8 °F6.8 °F68 %30.20 in10.0 miCalmClear
4:15 AM15.8 °F6.8 °F68 %30.18 in7.0 miCalmClear
4:35 AM15.8 °F6.8 °F68 %30.20 in10.0 miCalmClear
4:55 AM15.8 °F6.8 °F68 %30.21 in10.0 miCalmClear
5:15 AM15.8 °F6.8 °F68 %30.21 in10.0 miCalmClear
5:35 AM14.0 °F6.8 °F73 %30.22 in10.0 miCalmClear
5:55 AM14.0 °F5.0 °F67 %30.21 in10.0 miCalmClear
6:15 AM14.0 °F5.0 °F67 %30.22 in10.0 miCalmClear
6:35 AM12.2 °F5.0 °F73 %30.23 in10.0 miCalmClear
6:55 AM12.2 °F5.0 °F73 %30.24 in10.0 miCalmClear
7:15 AM12.2 °F3.2 °F67 %30.24 in10.0 miCalmClear
7:35 AM10.4 °F1.4 °F67 %30.25 in10.0 miCalmClear
7:55 AM10.4 °F1.4 °F67 %30.26 in10.0 miCalmClear
8:15 AM12.2 °F5.0 °F73 %30.26 in10.0 miCalmClear
8:35 AM17.6 °F10.4 °F73 %30.26 in10.0 miCalmClear
8:55 AM21.2 °F12.2 °F68 %30.27 in10.0 miNE (40°)3.5 mphClear
9:15 AM19.4 °F10.4 °F68 %30.28 in10.0 miCalmClear
9:35 AM24.8 °F15.8 °F69 %30.29 in10.0 miNE (50°)3.5 mphClear
9:55 AM24.8 °F10.4 °F54 %30.30 in10.0 miEast (100°)3.5 mphClear
10:15 AM28.4 °F8.6 °F43 %30.31 in10.0 miEast (80°)3.5 mphScattered Clouds
10:35 AM28.4 °F12.2 °F51 %30.31 in10.0 miCalmScattered Clouds
10:55 AM32.0 °F14.0 °F48 %30.31 in10.0 miCalm0.01 inScattered Clouds
11:15 AM33.8 °F19.4 °F56 %30.30 in10.0 miCalm0.01 inScattered Clouds
11:35 AM30.2 °F17.6 °F60 %30.30 in10.0 miNW (310°)3.5 mph0.01 inScattered Clouds
11:55 AM32.0 °F17.6 °F55 %30.29 in10.0 miWNW (300°)3.5 mphScattered Clouds
12:15 PM30.2 °F6.8 °F37 %30.29 in10.0 miSW (220°)5.8 mphScattered Clouds
12:35 PM28.4 °F8.6 °F43 %30.28 in10.0 miWest (280°)4.6 mphScattered Clouds
12:55 PM28.4 °F6.8 °F40 %30.26 in10.0 miSW (220°)3.5 mphClear
1:15 PM30.2 °F3.2 °F32 %30.26 in10.0 miWSW (240°)6.9 mphClear
1:35 PM30.2 °F1.4 °F29 %30.26 in10.0 miSSW (210°)6.9 mphClear
1:55 PM30.2 °F-2.2 °F25 %30.25 in10.0 miCalmClear
2:15 PM32.0 °F-5.8 °F20 %30.25 in10.0 miCalmClear
2:35 PM33.8 °F-9.4 °F15 %30.25 in10.0 miWest (260°)4.6 mphClear
2:55 PM33.8 °F-11.2 °F14 %30.24 in10.0 miSSW (200°)4.6 mphClear
3:15 PM33.8 °F-13.0 °F13 %30.23 in10.0 miWest (260°)3.5 mphClear
3:35 PM33.8 °F-11.2 °F14 %30.24 in10.0 miWSW (240°)6.9 mphClear
3:55 PM32.0 °F-13.0 °F14 %30.24 in10.0 miSW (230°)8.1 mphClear
4:15 PM33.8 °F-16.6 °F11 %30.25 in10.0 miWNW (290°)3.5 mphClear
4:35 PM33.8 °F-16.6 °F11 %30.25 in10.0 miSW (230°)6.9 mphClear
4:55 PM30.2 °F-16.6 °F13 %30.26 in10.0 miWSW (250°)6.9 mphClear
5:15 PM28.4 °F-14.8 °F15 %30.26 in10.0 miCalmClear
5:35 PM26.6 °F-16.6 °F14 %30.26 in10.0 miCalmClear
5:55 PM24.8 °F-14.8 °F17 %30.27 in10.0 miCalmClear
6:15 PM23.0 °F-13.0 °F20 %30.27 in10.0 miCalmClear
6:35 PM23.0 °F-13.0 °F20 %30.29 in10.0 miCalmClear
6:55 PM23.0 °F-11.2 °F22 %30.29 in10.0 miWSW (250°)3.5 mphClear
7:15 PM23.0 °F-11.2 °F22 %30.29 in10.0 miCalmClear
7:35 PM23.0 °F-11.2 °F22 %30.29 in10.0 miCalmClear
7:55 PM21.2 °F-9.4 °F26 %30.30 in10.0 miCalmClear
8:15 PM19.4 °F-5.8 °F33 %30.29 in10.0 miCalmClear
8:35 PM21.2 °F-5.8 °F30 %30.30 in10.0 miCalmClear
8:55 PM19.4 °F-7.6 °F30 %30.30 in10.0 miCalmClear
9:15 PM19.4 °F-4.0 °F36 %30.31 in10.0 miCalmClear
9:35 PM19.4 °F-5.8 °F33 %30.31 in10.0 miCalmClear
9:55 PM19.4 °F-5.8 °F33 %30.31 in10.0 miSW (230°)3.5 mphClear
10:15 PM17.6 °F-5.8 °F35 %30.31 in10.0 miCalmClear
10:35 PM15.8 °F-2.2 °F45 %30.31 in10.0 miCalmClear
10:55 PM17.6 °F-4.0 °F38 %30.32 in10.0 miCalmClear
11:15 PM15.8 °F-2.2 °F45 %30.32 in10.0 miCalmClear
11:35 PM15.8 °F-2.2 °F45 %30.32 in10.0 miCalmClear
11:55 PM12.2 °F-2.2 °F53 %30.34 in10.0 miCalmClear
Hourly data recorded from KFVX, located miles away from Cartersville, Virginia







STORIES FROM OUR PARTNERS